When you browse on this site, cookies collect data to enhance your experience and personalize the content and advertising you see.
Visit our Privacy Policy to learn more. By continuing to use the site, you agree to this use of cookies and data.
  • In Hungary
  • List of Countries
  • For 7 days
  • Water Temperature
  • Satellite Maps
  • Weather Map
  • News
  • Weather Widgets
  • user-avatar
    Login

    Hourly Weather Muhlacker

    Today, 22 February, Friday

    Time Temperature Precipitation Wind Pressure Humidity
    00:00 +8°C° 0 mm 2 mps 750 mmHg 87%
    01:00 +7°C° 0 mm 2 mps 750 mmHg 89%
    02:00 +7°C° 0 mm 2 mps 750 mmHg 90%
    03:00 +7°C° 0 mm 2 mps 750 mmHg 90%
    04:00 +7°C° 0 mm 2 mps 750 mmHg 90%
    05:00 +7°C° 0 mm 2 mps 750 mmHg 91%
    06:00 +7°C° 0 mm 2 mps 751 mmHg 91%
    07:00 +8°C° 0 mm 1 mps 751 mmHg 91%
    08:00 +9°C° 0 mm 1 mps 751 mmHg 89%
    09:00 +9°C° 0 mm 1 mps 751 mmHg 88%
    10:00 +10°C° 0 mm 1 mps 752 mmHg 87%
    11:00 +10°C° 0.1 mm 1 mps 752 mmHg 85%
    12:00 +10°C° 0.1 mm 1 mps 752 mmHg 83%
    13:00 +11°C° 0.1 mm 1 mps 752 mmHg 81%
    14:00 +11°C° 0.1 mm 1 mps 752 mmHg 78%
    15:00 +12°C° 0.1 mm 1 mps 752 mmHg 75%
    16:00 +12°C° 0.1 mm 2 mps 752 mmHg 72%
    17:00 +10°C° 0 mm 2 mps 752 mmHg 76%
    18:00 +9°C° 0 mm 2 mps 753 mmHg 80%
    19:00 +8°C° 0 mm 2 mps 753 mmHg 84%
    20:00 +7°C° 0 mm 2 mps 753 mmHg 85%
    21:00 +7°C° 0 mm 2 mps 753 mmHg 86%
    22:00 +5°C° 0 mm 3 mps 753 mmHg 87%
    23:00 +5°C° 0 mm 3 mps 754 mmHg 88%

    Tomorrow, 23 February, Saturday

    Time Temperature Precipitation Wind Pressure Humidity
    00:00 +5°C° 0 mm 2 mps 754 mmHg 89%
    01:00 +5°C° 0 mm 2 mps 754 mmHg 90%
    02:00 +4°C° 0 mm 2 mps 754 mmHg 89%
    03:00 +4°C° 0 mm 2 mps 753 mmHg 89%
    04:00 +3°C° 0 mm 2 mps 753 mmHg 89%
    05:00 +3°C° 0 mm 2 mps 753 mmHg 89%
    06:00 +2°C° 0 mm 2 mps 753 mmHg 90%
    07:00 +2°C° 0 mm 2 mps 753 mmHg 90%
    08:00 +2°C° 0 mm 3 mps 754 mmHg 78%
    09:00 +3°C° 0 mm 3 mps 754 mmHg 67%
    10:00 +4°C° 0 mm 4 mps 754 mmHg 55%
    11:00 +5°C° 0 mm 4 mps 754 mmHg 48%
    12:00 +6°C° 0 mm 4 mps 753 mmHg 41%
    13:00 +8°C° 0 mm 4 mps 753 mmHg 34%
    14:00 +8°C° 0 mm 4 mps 753 mmHg 34%
    15:00 +8°C° 0 mm 4 mps 752 mmHg 35%
    16:00 +8°C° 0 mm 4 mps 752 mmHg 35%
    17:00 +7°C° 0 mm 4 mps 752 mmHg 39%
    18:00 +5°C° 0 mm 4 mps 753 mmHg 43%
    19:00 +4°C° 0 mm 3 mps 753 mmHg 46%
    20:00 +3°C° 0 mm 3 mps 753 mmHg 46%
    21:00 +2°C° 0 mm 3 mps 753 mmHg 46%
    22:00 +2°C° 0 mm 3 mps 753 mmHg 46%
    23:00 +1°C° 0 mm 3 mps 753 mmHg 46%

    Day after tomorrow, 24 February, Sunday

    Time Temperature Precipitation Wind Pressure Humidity
    00:00 +2°C° 0 mm 2 mps 753 mmHg 45%
    01:00 +2°C° 0 mm 2 mps 753 mmHg 45%
    02:00 +1°C° 0 mm 2 mps 753 mmHg 44%
    03:00 +1°C° 0 mm 2 mps 753 mmHg 44%
    04:00 +1°C° 0 mm 2 mps 753 mmHg 44%
    05:00 +1°C° 0 mm 2 mps 753 mmHg 43%
    06:00 +1°C° 0 mm 2 mps 753 mmHg 43%
    07:00 +1°C° 0 mm 2 mps 753 mmHg 42%
    08:00 +2°C° 0 mm 2 mps 754 mmHg 38%
    09:00 +4°C° 0 mm 2 mps 754 mmHg 35%
    10:00 +4°C° 0 mm 3 mps 754 mmHg 31%
    11:00 +7°C° 0 mm 3 mps 754 mmHg 30%
    12:00 +8°C° 0 mm 3 mps 754 mmHg 29%
    13:00 +10°C° 0 mm 3 mps 754 mmHg 28%
    14:00 +10°C° 0 mm 3 mps 754 mmHg 31%
    15:00 +11°C° 0 mm 3 mps 753 mmHg 34%
    16:00 +11°C° 0 mm 3 mps 753 mmHg 36%
    17:00 +9°C° 0 mm 3 mps 753 mmHg 42%
    18:00 +8°C° 0 mm 2 mps 754 mmHg 47%
    19:00 +6°C° 0 mm 2 mps 754 mmHg 52%
    20:00 +5°C° 0 mm 2 mps 754 mmHg 54%
    21:00 +5°C° 0 mm 2 mps 755 mmHg 55%
    22:00 +4°C° 0 mm 2 mps 755 mmHg 56%
    23:00 +4°C° 0 mm 2 mps 755 mmHg 56%

    25 February, Monday

    Time Temperature Precipitation Wind Pressure Humidity
    00:00 +4°C° 0 mm 2 mps 755 mmHg 56%
    01:00 +3°C° 0 mm 2 mps 755 mmHg 56%
    02:00 +3°C° 0 mm 2 mps 754 mmHg 58%
    03:00 +4°C° 0 mm 1 mps 754 mmHg 59%
    04:00 +4°C° 0 mm 1 mps 754 mmHg 60%
    05:00 +4°C° 0 mm 1 mps 754 mmHg 61%
    06:00 +3°C° 0 mm 1 mps 754 mmHg 63%
    07:00 +3°C° 0 mm 1 mps 754 mmHg 64%
    08:00 +4°C° 0 mm 2 mps 754 mmHg 61%
    09:00 +5°C° 0 mm 2 mps 754 mmHg 58%
    10:00 +7°C° 0 mm 3 mps 754 mmHg 56%
    11:00 +9°C° 0 mm 3 mps 754 mmHg 54%
    12:00 +10°C° 0 mm 4 mps 754 mmHg 53%
    13:00 +12°C° 0 mm 4 mps 753 mmHg 52%
    14:00 +13°C° 0 mm 4 mps 753 mmHg 52%
    15:00 +13°C° 0 mm 4 mps 753 mmHg 53%
    16:00 +13°C° 0 mm 4 mps 752 mmHg 54%
    17:00 +12°C° 0 mm 4 mps 752 mmHg 60%
    18:00 +10°C° 0 mm 3 mps 753 mmHg 66%
    19:00 +9°C° 0 mm 3 mps 753 mmHg 72%
    20:00 +8°C° 0 mm 3 mps 753 mmHg 74%
    21:00 +7°C° 0 mm 2 mps 754 mmHg 75%
    22:00 +6°C° 0 mm 2 mps 754 mmHg 77%
    23:00 +6°C° 0 mm 2 mps 754 mmHg 78%

    26 February, Tuesday

    Time Temperature Precipitation Wind Pressure Humidity
    00:00 +7°C° 0 mm 1 mps 754 mmHg 79%
    01:00 +6°C° 0 mm 1 mps 754 mmHg 80%
    02:00 +6°C° 0 mm 1 mps 753 mmHg 81%
    03:00 +6°C° 0 mm 1 mps 753 mmHg 81%
    04:00 +5°C° 0 mm 1 mps 753 mmHg 82%
    05:00 +5°C° 0 mm 1 mps 753 mmHg 82%
    06:00 +5°C° 0 mm 1 mps 753 mmHg 82%
    07:00 +5°C° 0 mm 1 mps 753 mmHg 82%
    08:00 +6°C° 0 mm 1 mps 753 mmHg 76%
    09:00 +8°C° 0 mm 1 mps 753 mmHg 70%
    10:00 +9°C° 0 mm 1 mps 753 mmHg 64%
    11:00 +11°C° 0 mm 1 mps 753 mmHg 59%
    12:00 +12°C° 0 mm 1 mps 752 mmHg 55%
    13:00 +14°C° 0 mm 1 mps 752 mmHg 51%
    14:00 +14°C° 0 mm 2 mps 751 mmHg 51%
    15:00 +15°C° 0 mm 2 mps 751 mmHg 52%
    16:00 +15°C° 0 mm 2 mps 750 mmHg 52%
    17:00 +13°C° 0 mm 2 mps 750 mmHg 59%
    18:00 +12°C° 0 mm 1 mps 750 mmHg 66%
    19:00 +10°C° 0 mm 1 mps 751 mmHg 72%
    20:00 +10°C° 0 mm 1 mps 750 mmHg 75%
    21:00 +9°C° 0 mm 1 mps 750 mmHg 78%
    22:00 +9°C° 0 mm 1 mps 750 mmHg 80%
    23:00 +8°C° 0 mm 1 mps 750 mmHg 81%

    27 February, Wednesday

    Time Temperature Precipitation Wind Pressure Humidity
    00:00 +8°C° 0 mm 1 mps 750 mmHg 82%
    01:00 +8°C° 0 mm 1 mps 750 mmHg 83%
    02:00 +7°C° 0 mm 1 mps 749 mmHg 84%
    03:00 +7°C° 0 mm 1 mps 749 mmHg 84%
    04:00 +7°C° 0 mm 1 mps 749 mmHg 84%
    05:00 +7°C° 0 mm 1 mps 749 mmHg 85%
    06:00 +6°C° 0 mm 1 mps 748 mmHg 85%
    07:00 +6°C° 0 mm 1 mps 748 mmHg 85%
    08:00 +8°C° 0 mm 1 mps 748 mmHg 78%
    09:00 +9°C° 0 mm 1 mps 748 mmHg 72%
    10:00 +10°C° 0 mm 2 mps 748 mmHg 65%
    11:00 +13°C° 0 mm 2 mps 747 mmHg 62%
    12:00 +14°C° 0 mm 2 mps 747 mmHg 58%
    13:00 +16°C° 0 mm 2 mps 746 mmHg 55%
    14:00 +16°C° 0 mm 3 mps 746 mmHg 56%
    15:00 +16°C° 0 mm 3 mps 745 mmHg 57%
    16:00 +17°C° 0 mm 3 mps 745 mmHg 58%
    17:00 +15°C° 0 mm 2 mps 745 mmHg 66%
    18:00 +13°C° 0 mm 2 mps 745 mmHg 73%
    19:00 +12°C° 0 mm 1 mps 744 mmHg 80%
    20:00 +11°C° 0 mm 1 mps 744 mmHg 82%
    21:00 +9°C° 0 mm 2 mps 744 mmHg 83%
    22:00 +9°C° 0 mm 2 mps 744 mmHg 85%
    23:00 +9°C° 0 mm 1 mps 744 mmHg 86%
    Show more